Location: Hurstbourne Priors
(51.2000°N, 1.3667°W)
Time: 18:50:03
(UTC+00:00)

Vanguard 2 Rocket - All Passes

Search period start: 19 April 2021 00:00
Search period end: 29 April 2021 00:00
Orbit: 553 x 3326 km, 32.9° (Epoch: 18 April)

Date Brightness Start Highest point End Pass type
(mag) Time Alt. Az. Time Alt. Az. Time Alt. Az.
19 Apr - 11:17:00 10° SSE 11:27:00 17° SE 11:37:44 10° ESE daylight
19 Apr - 13:25:02 10° SSW 13:41:04 35° SSE 13:57:00 10° ESE daylight
19 Apr - 15:38:40 10° WSW 15:56:39 42° S 16:11:46 10° ESE daylight
19 Apr - 17:55:27 10° WSW 18:11:38 34° SSW 18:23:46 10° SSE daylight
19 Apr - 20:16:18 10° WSW 20:24:20 15° SW 20:30:58 10° SSW visible
20 Apr - 10:23:11 10° SE 10:26:51 11° SE 10:30:39 10° ESE daylight
20 Apr - 12:25:38 10° SSW 12:39:59 30° SSE 12:55:21 10° E daylight
20 Apr - 14:37:41 10° SW 14:55:12 42° S 15:11:25 10° ESE daylight
20 Apr - 16:53:17 10° WSW 17:10:45 39° SSW 17:24:37 10° SE daylight
20 Apr - 19:12:01 10° W 19:24:30 23° SW 19:34:14 10° S daylight
21 Apr - 11:27:08 10° S 11:39:14 23° SE 11:52:50 10° E daylight
21 Apr - 13:37:17 10° SW 13:53:46 39° SSE 14:10:34 10° ESE daylight
21 Apr - 15:51:37 10° WSW 16:09:30 42° S 16:24:54 10° SE daylight
21 Apr - 18:08:57 10° W 18:24:13 30° SSW 18:36:10 10° SSE daylight
21 Apr - 20:34:47 10° WSW 20:36:28 10° SW 20:38:04 10° SW visible
22 Apr - 10:30:00 10° SSE 10:38:54 17° SE 10:48:59 10° ESE daylight
22 Apr - 12:37:32 10° SSW 12:52:31 35° SSE 13:09:06 10° E daylight
22 Apr - 14:50:30 10° WSW 15:08:03 43° S 15:24:39 10° ESE daylight
22 Apr - 17:06:34 10° WSW 17:23:28 36° SSW 17:37:18 10° SE daylight
22 Apr - 19:26:41 10° W 19:36:46 17° SW 19:45:12 10° SSW visible
23 Apr - 11:38:30 10° SSW 11:51:36 29° SSE 12:07:00 10° E daylight
23 Apr - 13:49:56 10° SW 14:06:33 42° S 14:23:53 10° ESE daylight
23 Apr - 16:04:47 10° WSW 16:22:19 40° SSW 16:37:46 10° SE daylight
23 Apr - 18:22:50 10° W 18:36:37 24° SW 18:47:58 10° S daylight
24 Apr - 10:40:21 10° S 10:51:06 22° SE 11:04:03 10° E daylight
24 Apr - 12:49:57 10° SW 13:05:11 39° SSE 13:22:33 10° ESE daylight
24 Apr - 15:03:34 10° WSW 15:20:54 43° S 15:37:41 10° SE daylight
24 Apr - 17:20:08 10° W 17:36:02 31° SSW 17:49:32 10° SSE daylight
24 Apr - 19:43:29 10° WSW 19:48:51 12° SW 19:53:48 10° SW visible
25 Apr - 09:43:42 10° SSE 09:51:03 15° SE 09:59:39 10° ESE daylight
25 Apr - 11:50:35 10° SSW 12:04:06 34° SSE 12:20:39 10° E daylight
25 Apr - 14:02:54 10° WSW 14:19:23 43° S 14:37:00 10° ESE daylight
25 Apr - 16:18:10 10° WSW 16:35:01 36° SSW 16:50:19 10° SE daylight
25 Apr - 18:37:28 10° W 18:48:52 19° SW 18:58:48 10° S daylight
26 Apr - 10:51:54 10° SSW 11:03:27 28° SE 11:18:08 10° E daylight
26 Apr - 13:02:44 10° SW 13:17:57 41° S 13:35:46 10° ESE daylight
26 Apr - 15:16:50 10° WSW 15:33:42 40° SSW 15:50:25 10° SE daylight
26 Apr - 17:34:05 10° W 17:48:27 25° SW 18:01:10 10° S daylight
27 Apr - 09:54:08 10° S 10:03:15 21° SE 10:14:48 10° E daylight
27 Apr - 12:03:09 10° SW 12:16:47 38° SSE 12:34:01 10° ESE daylight
27 Apr - 14:16:04 10° WSW 14:32:14 42° S 14:49:53 10° SE daylight
27 Apr - 16:31:50 10° W 16:47:36 31° SSW 17:02:23 10° SSE daylight
27 Apr - 18:53:56 10° WSW 19:00:59 13° SW 19:07:32 10° SSW daylight
28 Apr - 08:58:07 10° SSE 09:03:31 13° SE 09:09:49 10° ESE daylight
28 Apr - 11:04:08 10° SSW 11:15:59 32° SSE 11:31:44 10° E daylight
28 Apr - 13:15:49 10° WSW 13:30:48 42° S 13:48:48 10° ESE daylight
28 Apr - 15:30:19 10° WSW 15:46:26 36° SSW 16:02:47 10° SE daylight
28 Apr - 17:48:47 10° W 18:00:43 20° SW 18:11:47 10° S daylight
